Location: Usti nad Labem
(50.6670°N, 14.0330°E)
Time: 02:43:09
(UTC+01:00)

ISS - Visible Passes

Search period start: 22 January 2019 00:00
Search period end: 01 February 2019 00:00
Orbit: 404 x 410 km, 51.6° (Epoch: 22 January)

Date Brightness Start Highest point End Pass type
(mag) Time Alt. Az. Time Alt. Az. Time Alt. Az.
23 Jan -1.8 18:39:26 10° SSW 18:41:05 18° SSE 18:41:05 18° SSE visible
24 Jan -1.5 17:49:15 10° SSE 17:50:48 13° SE 17:52:04 11° ESE visible
24 Jan -1.4 19:23:33 10° SW 19:24:48 21° SW 19:24:48 21° SW visible
25 Jan -3.0 18:32:27 10° SW 18:35:30 35° SSE 18:35:43 35° SE visible
26 Jan -2.2 17:41:34 10° SSW 17:44:17 24° SE 17:46:33 13° E visible
26 Jan -2.3 19:17:13 10° WSW 19:19:16 35° WSW 19:19:16 35° WSW visible
27 Jan -3.7 18:25:54 10° WSW 18:29:10 61° SSE 18:30:03 41° E visible
27 Jan -0.4 20:02:25 10° W 20:02:46 12° W 20:02:46 12° W visible
28 Jan -3.1 17:34:42 10° SW 17:37:51 42° SSE 17:40:47 11° E visible
28 Jan -2.9 19:10:59 10° W 19:13:30 48° W 19:13:30 48° W visible
29 Jan -3.9 18:19:34 10° WSW 18:22:52 89° S 18:24:13 33° ENE visible
29 Jan -0.7 19:56:12 10° W 19:56:55 16° W 19:56:55 16° W visible
30 Jan -3.7 17:28:10 10° WSW 17:31:28 70° SSE 17:34:46 10° ENE visible
30 Jan -3.4 19:04:44 10° W 19:07:36 60° NW 19:07:36 60° NW visible
31 Jan -3.8 18:13:16 10° W 18:16:35 74° N 18:18:17 26° ENE visible
31 Jan -1.0 19:49:53 10° WNW 19:50:59 19° WNW 19:50:59 19° WNW visible
